[[{"header":{"parameterUnit":"m.s-1","parameterCategory":1,"la1":30.2991,"la2":30.254,"lo1":-89.0895,"lo2":-89.0444,"dy":0.0017,"dx":0.0017,"nx":28,"ny":28,"refTime":"2024-06-12T09:00:00:Z","depth":0,"parameterNumber":2,"parameterNumberName":"U-component_of_WINDS"},"data":[0,0,0,0,0,0,0,0,0,0,0,0,0,0,0,0,0,0,0,0,0,0,0,0,0,0,0,0,0,0,0,0,0,0,0,0,0,0,0,0,0,0,0,0,0,0,0,0,0,0,0,0,0,0,0,0,0,0,0.7077,0.7077,0,0.7121,0.7122,0.7122,0.7138,0.7138,0.7138,0.7138,0.7184,0.7186,0.7187,0,0,0,0,0,0,0,0,0,0,0,0,0,0.7007,0.7008,0.7077,0.7077,0.7078,0.7121,0.7122,0.7122,0.7138,0.7138,0.7138,0.7138,0.7184,0.7185,0.7187,0,0,0,0,0,0,0,0,0,0,0,0,0,0.7043,0.7009,0.7076,0.7091,0.7093,0.7121,0.7122,0.7122,0.7138,0.7138,0.7138,0.7138,0.7183,0.7185,0.7187,0.7205,0,0,0.7194,0.7195,0,0,0,0,0,0,0,0,0.7041,0.7046,0.7088,0.709,0.7092,0.7124,0.7114,0.715,0.7138,0.7121,0.7138,0.7138,0.7164,0.7168,0.7177,0.7207,0.7209,0.7194,0.7195,0.7196,0.7197,0,0,0,0,0,0,0,0.7039,0.7044,0.7094,0.7089,0.7091,0.7096,0.7101,0.7121,0.7143,0.7123,0.7124,0.7129,0.7165,0.7175,0.7178,0.721,0.7194,0.7196,0.7197,0.7198,0.7258,0.7258,0,0,0,0,0,0,0.7033,0.7042,0.7093,0.7096,0.7065,0.7097,0.7103,0.7114,0.7143,0.7148,0.7129,0.7129,0.7171,0.7176,0.718,0.7203,0.7196,0.7198,0.7199,0.7257,0.7258,0.7258,0,0,0,0,0,0,0.7032,0.7038,0.7091,0.7069,0.7076,0.7099,0.7111,0.7115,0.7124,0.7148,0.7152,0.7134,0.7171,0.7177,0.7199,0.7205,0.7199,0.7201,0.7257,0.7257,0.7258,0.7248,0,0,0,0,0,0,0.703,0.7037,0.7043,0.7069,0.7077,0.7108,0.7112,0.7116,0.7128,0.7129,0.7154,0.7158,0.7172,0.7195,0.7201,0.7207,0.7202,0.7256,0.7257,0.7258,0.7248,0.7248,0.7248,0,0,0,0,0,0.7027,0.7039,0.7044,0.705,0.7085,0.7109,0.7113,0.7128,0.7128,0.7135,0.7151,0.7158,0.7203,0.7198,0.7204,0.7211,0.7256,0.7257,0.7258,0.7248,0.7248,0.7248,0,0,0,0,0,0,0.7013,0.7042,0.7048,0.7068,0.7086,0.7111,0.712,0.7128,0.7146,0.7146,0.7164,0.717,0.719,0.7203,0.7196,0.723,0.723,0.7232,0.7221,0.7221,0.7221,0.7218,0.7204,0,0,0,0,0,0.7012,0.7028,0.7053,0.7068,0.7077,0.7097,0.7108,0.7118,0.7137,0.7145,0.7162,0.718,0.7199,0.7211,0.723,0.725,0.7257,0.7259,0.7259,0.7259,0.726,0.7273,0.7275,0.7261,0.7261,0.7261,0,0,0.701,0.7028,0.7037,0.7066,0.7081,0.7098,0.7103,0.712,0.7133,0.7147,0.7169,0.7182,0.7205,0.7226,0.7237,0.7237,0.7266,0.726,0.726,0.7261,0.7274,0.7275,0.7277,0.7261,0.7261,0.7261,0,0,0.7016,0.7031,0.7046,0.7061,0.7084,0.7097,0.7101,0.7126,0.7135,0.7157,0.7169,0.7185,0.7216,0.7232,0.7244,0.7258,0.7265,0.7264,0.7264,0.7277,0.7278,0.7279,0.7284,0.7286,0.7265,0.7265,0.7265,0,0.7011,0.7036,0.7052,0.7069,0.7082,0.7096,0.7112,0.7126,0.7153,0.7162,0.7163,0.7204,0.722,0.7245,0.7249,0.7258,0.7264,0.726,0.7276,0.7278,0.7279,0.7284,0.7286,0.7265,0.7265,0.7265,0.7265,0,0.7029,0.7047,0.7056,0.7083,0.7097,0.7113,0.7132,0.7145,0.7154,0.7168,0.7191,0.7211,0.7234,0.7241,0.725,0.7269,0.7269,0.7273,0.7273,0.7279,0.7285,0.7287,0.7264,0.7264,0.7264,0.7264,0,0,0.7025,0.7062,0.7065,0.7078,0.7105,0.7119,0.7137,0.7159,0.717,0.7189,0.7205,0.7232,0.7236,0.725,0.7262,0.7273,0.7283,0.7275,0.7276,0.7276,0.7305,0.7302,0.7304,0.7289,0.7289,0.7289,0.7303,0,0.7034,0.7065,0.7082,0.7106,0.7123,0.7138,0.7153,0.7172,0.7186,0.7203,0.7219,0.7238,0.7242,0.7251,0.7262,0.7279,0.7289,0.7278,0.7303,0.7304,0.7297,0.7306,0.7303,0.7315,0.7306,0.7306,0.7306,0,0.7048,0.7068,0.7094,0.7121,0.7128,0.7142,0.7165,0.7181,0.7203,0.7212,0.7229,0.724,0.726,0.726,0.7289,0.7281,0.7293,0.7303,0.7304,0.7306,0.7305,0.7309,0.7319,0.7321,0.731,0.7309,0.7309,0,0.7043,0.7076,0.7096,0.7107,0.7138,0.7147,0.7161,0.7183,0.7196,0.7216,0.7225,0.7248,0.726,0.7278,0.7295,0.7294,0.7322,0.7324,0.7331,0.7331,0.7336,0.7335,0.7348,0.7344,0.7344,0.7344,0.7344,0,0.7051,0.7067,0.7094,0.7107,0.7125,0.7144,0.7162,0.7177,0.7197,0.7213,0.7227,0.7242,0.7265,0.7283,0.7298,0.7319,0.7325,0.7333,0.7337,0.7332,0.7331,0.7339,0.7338,0.7344,0.7344,0.7344,0.7344,0,0.7047,0.7067,0.709,0.7118,0.7126,0.7138,0.7162,0.7175,0.7191,0.7211,0.7217,0.7241,0.7264,0.7283,0.7313,0.7323,0.7345,0.7349,0.7337,0.7339,0.7346,0.7345,0.7363,0.7367,0.7361,0.7361,0.7361,0,0.7051,0.7063,0.7093,0.7105,0.7119,0.7137,0.7151,0.7171,0.7185,0.7212,0.7222,0.7246,0.7265,0.73,0.7321,0.7344,0.7349,0.7354,0.7353,0.7347,0.7349,0.7348,0.735,0.7354,0.7354,0.7354,0.7354,0,0.7055,0.7065,0.7084,0.7107,0.7123,0.7142,0.7161,0.717,0.7194,0.7209,0.7232,0.7247,0.7278,0.7301,0.7327,0.7342,0.7352,0.7354,0.7357,0.7352,0.7344,0.7348,0.7337,0.7353,0.7354,0.7354,0.7354,0.7354,0.7056,0.7068,0.7091,0.7112,0.7129,0.7147,0.7161,0.7179,0.7198,0.7224,0.7235,0.7259,0.7282,0.7318,0.7333,0.7352,0.7354,0.7358,0.7359,0.736,0.7359,0.7342,0.7357,0.7357,0.7357,0.7357,0.7357,0,0.7061,0.7077,0.7096,0.7123,0.714,0.7149,0.7171,0.7185,0.7205,0.7226,0.7246,0.7273,0.7296,0.7319,0.7343,0.7354,0.736,0.736,0.7359,0.7363,0.7356,0.7351,0.7355,0.7355,0.7355,0.7355,0.7355,0.7355,0.7065,0.7087,0.7099,0.7129,0.7145,0.7168,0.718,0.7198,0.7215,0.7244,0.7263,0.7278,0.73,0.7327,0.7349,0.7355,0.7364,0.7363,0.737,0.7363,0.7363,0.7363,0.7358,0.7364,0.7364,0.7375,0.7375,0.7375]},{"header":{"parameterUnit":"m.s-1","parameterCategory":1,"la1":30.2991,"la2":30.254,"lo1":-89.0895,"lo2":-89.0444,"dy":0.0017,"dx":0.0017,"nx":28,"ny":28,"refTime":"2024-06-12T09:00:00:Z","depth":0,"parameterNumber":3,"parameterNumberName":"V-component_of_WINDS"},"data":[0,0,0,0,0,0,0,0,0,0,0,0,0,0,0,0,0,0,0,0,0,0,0,0,0,0,0,0,0,0,0,0,0,0,0,0,0,0,0,0,0,0,0,0,0,0,0,0,0,0,0,0,0,0,0,0,0,0,0.8589,0.8588,0,0.8569,0.8568,0.8568,0.8484,0.8482,0.848,0.8478,0.8459,0.846,0.8461,0,0,0,0,0,0,0,0,0,0,0,0,0,0.8555,0.8556,0.8589,0.8588,0.8588,0.8569,0.8568,0.8568,0.8484,0.8482,0.848,0.8477,0.8458,0.846,0.8462,0,0,0,0,0,0,0,0,0,0,0,0,0,0.8556,0.8556,0.8589,0.8544,0.854,0.8569,0.8568,0.8568,0.8485,0.8482,0.8479,0.8476,0.8458,0.846,0.8462,0.8533,0,0,0.8468,0.8469,0,0,0,0,0,0,0,0,0.8556,0.8557,0.8551,0.8547,0.8542,0.8526,0.8549,0.8556,0.8486,0.8506,0.8478,0.8475,0.8484,0.8483,0.8486,0.8532,0.8531,0.8468,0.8469,0.847,0.847,0,0,0,0,0,0,0,0.8556,0.8557,0.8581,0.8551,0.8546,0.8525,0.8522,0.855,0.8511,0.8504,0.8498,0.8496,0.8481,0.8484,0.8485,0.853,0.8468,0.847,0.8471,0.8472,0.863,0.8633,0,0,0,0,0,0,0.8562,0.8558,0.8581,0.858,0.8542,0.8528,0.8524,0.8534,0.8511,0.8504,0.8499,0.8492,0.8482,0.8483,0.8484,0.8562,0.847,0.8472,0.8473,0.8627,0.863,0.8634,0,0,0,0,0,0,0.8561,0.8565,0.8582,0.8567,0.8568,0.8532,0.8543,0.8535,0.8539,0.8507,0.85,0.8509,0.848,0.8481,0.852,0.856,0.8473,0.8474,0.8623,0.8628,0.8632,0.8721,0,0,0,0,0,0,0.8561,0.8565,0.8592,0.8569,0.8569,0.8619,0.8546,0.8537,0.8542,0.8534,0.8515,0.8509,0.8478,0.8518,0.8522,0.8561,0.8476,0.8619,0.8625,0.8631,0.8715,0.8728,0.874,0,0,0,0,0,0.856,0.8619,0.8594,0.8597,0.8601,0.8622,0.8622,0.8584,0.8546,0.8572,0.8551,0.851,0.8556,0.8522,0.8527,0.8567,0.8617,0.8624,0.863,0.8709,0.8726,0.874,0,0,0,0,0,0,0.8649,0.8615,0.8587,0.864,0.8634,0.8607,0.8639,0.8604,0.8609,0.8601,0.8555,0.8551,0.8596,0.8586,0.8549,0.8633,0.8579,0.8587,0.8637,0.8653,0.8666,0.8666,0.8478,0,0,0,0,0,0.8674,0.8693,0.8663,0.8713,0.8711,0.8676,0.8683,0.8655,0.8647,0.8644,0.8627,0.8621,0.8634,0.8644,0.8654,0.8714,0.8707,0.8743,0.8756,0.8767,0.8774,0.8801,0.8816,0.8656,0.8656,0.8656,0,0,0.8727,0.8711,0.8726,0.873,0.8722,0.8742,0.8675,0.8699,0.8713,0.8648,0.8683,0.867,0.8661,0.871,0.873,0.8702,0.8817,0.8776,0.8784,0.8785,0.881,0.8825,0.8838,0.8661,0.866,0.8659,0,0,0.8834,0.8825,0.8863,0.8857,0.8845,0.8821,0.8831,0.8809,0.8798,0.8832,0.8783,0.8799,0.8823,0.8817,0.8818,0.8921,0.8882,0.8926,0.8991,0.9019,0.9032,0.9042,0.9076,0.9089,0.8933,0.8933,0.8933,0,0.8901,0.8929,0.8888,0.8915,0.8917,0.8859,0.8896,0.8892,0.8886,0.8888,0.8858,0.8884,0.8874,0.8919,0.8944,0.8948,0.8955,0.8926,0.9033,0.9044,0.9053,0.9085,0.9098,0.8938,0.8938,0.8937,0.8937,0,0.9011,0.9031,0.9064,0.9057,0.9063,0.9096,0.9059,0.907,0.9041,0.902,0.9055,0.9041,0.9045,0.9055,0.9028,0.9096,0.9078,0.9042,0.8986,0.9074,0.9103,0.9115,0.8946,0.8944,0.8942,0.8941,0,0,0.9171,0.914,0.9153,0.9147,0.913,0.9145,0.9175,0.9179,0.9188,0.9186,0.9208,0.9229,0.9194,0.9194,0.9166,0.9191,0.9269,0.915,0.9149,0.917,0.9339,0.9365,0.938,0.9244,0.9246,0.9248,0.9339,0,0.927,0.9317,0.9281,0.9335,0.9351,0.9296,0.9321,0.9313,0.9295,0.9306,0.9286,0.93,0.9254,0.9254,0.9276,0.9255,0.9302,0.9248,0.9262,0.9263,0.9263,0.9395,0.9423,0.9509,0.935,0.9352,0.9354,0,0.9391,0.9391,0.9447,0.9423,0.9429,0.9453,0.9452,0.9464,0.9454,0.9438,0.9438,0.9403,0.9429,0.9377,0.9412,0.9376,0.938,0.937,0.9373,0.937,0.9312,0.9393,0.9536,0.9548,0.9372,0.937,0.9369,0,0.9497,0.9513,0.9547,0.9545,0.952,0.9537,0.9528,0.9514,0.9518,0.9519,0.952,0.9524,0.9526,0.9529,0.9495,0.9461,0.9533,0.9479,0.9519,0.952,0.9535,0.9534,0.9677,0.9543,0.9543,0.9543,0.9543,0,0.9609,0.9644,0.9594,0.9615,0.9652,0.961,0.9649,0.9633,0.9622,0.9638,0.9592,0.9608,0.9563,0.9575,0.9549,0.958,0.9582,0.9569,0.9561,0.9571,0.9572,0.9571,0.9563,0.9546,0.9546,0.9545,0.9544,0,0.9734,0.9702,0.9735,0.9708,0.9702,0.9731,0.9707,0.9725,0.9704,0.9725,0.9727,0.9693,0.9704,0.9671,0.9677,0.966,0.9704,0.9688,0.9707,0.97,0.9741,0.9737,0.9886,0.9902,0.9762,0.9763,0.9764,0,0.9806,0.9831,0.9806,0.9813,0.9806,0.9819,0.9822,0.9782,0.9787,0.9776,0.9795,0.9802,0.9805,0.9825,0.98,0.9804,0.9786,0.9838,0.9786,0.9794,0.9782,0.978,0.9781,0.9848,0.985,0.9851,0.9852,0,0.9935,0.9918,0.9924,0.9924,0.9929,0.9928,0.9924,0.9933,0.9889,0.9898,0.9907,0.991,0.9915,0.9922,0.992,0.991,0.9873,0.9869,0.9878,0.9887,0.9895,0.9888,0.9732,0.9865,0.9864,0.9863,0.9862,0.9862,1.0033,1.0052,1.0036,1.0044,1.0037,1.0033,1.0047,1.0027,1.0035,1.0035,1.0011,1.0026,1.0013,1.0007,1.0,1.001,0.9986,1.0,1.0003,1.0006,1.0011,0.9897,1.001,1.001,1.001,1.0009,1.0009,0,1.0157,1.0144,1.0152,1.0146,1.0152,1.0118,1.0111,1.0118,1.0131,1.0122,1.0125,1.0136,1.0142,1.0118,1.012,1.0132,1.0115,1.0134,1.0131,1.0129,1.0035,1.0025,1.0147,1.0147,1.0147,1.0147,1.0147,1.0147,1.0222,1.025,1.0231,1.0255,1.0243,1.0255,1.0254,1.025,1.0242,1.0255,1.026,1.0244,1.0229,1.0229,1.0233,1.0225,1.0227,1.0251,1.0237,1.0149,1.0136,1.0123,1.0113,1.0252,1.0252,1.033,1.033,1.0331]}]]